Вернуться в каталог

USA 522

АктивенВоенныеLEO
NORAD 63597·PAYLOAD·🇺🇸 United States

Запущен Apr 16, 2025 с Vandenberg Space Force Base

Loading…

Ближайшие Пролёты (ближайшие 24 часа)

TLE

УстаревшееSource: Mike McCants

Эпоха: Nov 13, 2025, 04:44 UTC

1 63597U 25077B   25317.19739246 0.00000000  00000-0  00000-0 0    03
2 63597  63.3855  42.8714 0020000 291.6239  68.3761 13.39285860    08

Отслеживайте USA 522 в реальном времени с AllMySat

Download on the App Store